C/2020 K5 ( PanSTARRS )

Japanese version
Home page
Updated on September 6, 2020

---------------------------------------------------------------------

* Profile

Discovery Date May 25, 2020
Magnitude 20.7 mag
Discoverer Pan-STARRS1 1.8-m Ritchey-Chretien reflector at Haleakala

* Pictures

* Orbital Elements

Epoch 2021 May 26.0 TT = JDT 2459360.5
T 2021 June 5.58081 TT                                  Rudenko
q   1.5355771            (2000.0)            P               Q
z  -0.0009413      Peri.  249.59216     +0.33980603     +0.19777493
 +/-0.0000129      Node    86.16571     +0.00201642     +0.97748403
e   1.0014455      Incl.   67.15054     -0.94049338     +0.07355303
From 52 observations 2020 Apr. 3-Aug. 19, mean residual 0".5.

* Finding Charts

* Magnitudes Graph

        m1 = 10.5 + 5 log d + 10.0 log r

---------------------------------------------------------------------

The orbital elements are published on M.P.E.C. 2020-R04.
The charts are made with StellaNavigator Ver.10 (AstroArts).
The magnitudes graphs are made with Comet for Windows.

---------------------------------------------------------------------

Copyright(C) Seiichi Yoshida (comet@aerith.net). All rights reserved.